CFG128 EDHL-LIPZ

Flight info

Callsign CFG128
Flight time 1h 26m
Altitude 37000
Route HAM2K HAM M852 POVEL Z94 GALMA M736 TABAT/N0454F310 M736 RDG/N0451F360 M736 DOSEL/N0451F370 M736 OLPIX/N0453F290 M736 EKPEB Y108 DIKEM M726 ALBET
Aircraft A320/M-SDE3FGHIRWY/LB1

Departure

Time 2026-04-22 21:05
Airport Lübeck Blankensee Airport (EDHL)

Arrival

Time 2026-04-22 22:31
Airport Venice Marco Polo Airport (LIPZ)
Time Latitude Longitude Altitude Speed Heading
2026-04-22 20:16 53.80477 10.70317 53 ft 0 kts 325°
2026-04-22 20:40 53.80465 10.70333 50 ft 3 kts 321°
2026-04-22 20:41 53.80446 10.70351 55 ft 3 kts 343°
2026-04-22 20:41 53.80430 10.70354 51 ft 3 kts 55°
2026-04-22 20:41 53.80422 10.70318 51 ft 3 kts 73°
2026-04-22 20:41 53.80415 10.70281 55 ft 3 kts 74°
2026-04-22 20:42 53.80412 10.70265 53 ft 0 kts 70°
2026-04-22 20:46 53.80415 10.70279 54 ft 10 kts 72°
2026-04-22 20:46 53.80445 10.70437 56 ft 15 kts 72°
2026-04-22 20:47 53.80476 10.70600 52 ft 14 kts 72°
2026-04-22 20:47 53.80504 10.70744 53 ft 12 kts 72°
2026-04-22 20:47 53.80527 10.70864 58 ft 10 kts 72°
2026-04-22 20:47 53.80546 10.70961 56 ft 7 kts 72°
2026-04-22 20:48 53.80557 10.71020 61 ft 3 kts 72°
2026-04-22 20:48 53.80560 10.71034 61 ft 2 kts 72°
2026-04-22 20:48 53.80580 10.71137 58 ft 10 kts 72°
2026-04-22 20:48 53.80602 10.71258 60 ft 16 kts 73°
2026-04-22 20:49 53.80641 10.71461 55 ft 19 kts 72°
2026-04-22 20:49 53.80645 10.71681 58 ft 19 kts 111°
2026-04-22 20:49 53.80594 10.71894 59 ft 21 kts 112°
2026-04-22 20:49 53.80575 10.72135 56 ft 21 kts 76°
2026-04-22 20:50 53.80621 10.72387 56 ft 24 kts 71°
2026-04-22 20:50 53.80675 10.72673 58 ft 26 kts 72°
2026-04-22 20:50 53.80737 10.72954 59 ft 26 kts 59°
2026-04-22 20:50 53.80752 10.73093 51 ft 4 kts 247°
2026-04-22 20:51 53.80751 10.73081 55 ft 0 kts 258°
2026-04-22 20:51 53.80749 10.73064 58 ft 10 kts 258°
2026-04-22 20:51 53.80642 10.72492 54 ft 89 kts 252°
2026-04-22 20:52 53.80414 10.71293 59 ft 77 kts 251°
2026-04-22 20:52 53.80370 10.71064 56 ft 0 kts 252°
2026-04-22 20:52 53.80353 10.70980 58 ft 20 kts 251°
2026-04-22 20:53 53.80305 10.70735 58 ft 23 kts 253°
2026-04-22 20:53 53.80256 10.70475 50 ft 24 kts 251°
2026-04-22 20:53 53.80211 10.70218 62 ft 21 kts 270°
2026-04-22 20:53 53.80283 10.70146 62 ft 10 kts 348°
2026-04-22 20:54 53.80356 10.70122 59 ft 11 kts 352°
2026-04-22 20:54 53.80369 10.70120 60 ft 0 kts 359°
2026-04-22 20:59 53.80392 10.70145 59 ft 15 kts 53°
2026-04-22 20:59 53.80426 10.70346 56 ft 17 kts 69°
2026-04-22 20:59 53.80465 10.70542 55 ft 18 kts 71°
2026-04-22 20:59 53.80505 10.70749 52 ft 19 kts 73°
2026-04-22 21:00 53.80543 10.70963 55 ft 19 kts 72°
2026-04-22 21:00 53.80585 10.71165 62 ft 18 kts 73°
2026-04-22 21:00 53.80624 10.71375 58 ft 20 kts 72°
2026-04-22 21:00 53.80659 10.71602 61 ft 20 kts 94°
2026-04-22 21:01 53.80611 10.71823 58 ft 20 kts 114°
2026-04-22 21:01 53.80564 10.72062 54 ft 22 kts 88°
2026-04-22 21:01 53.80604 10.72312 54 ft 23 kts 71°
2026-04-22 21:01 53.80656 10.72570 58 ft 23 kts 72°
2026-04-22 21:02 53.80708 10.72842 58 ft 24 kts 72°
2026-04-22 21:02 53.80776 10.73080 56 ft 19 kts 59°
2026-04-22 21:02 53.80756 10.73085 54 ft 6 kts 237°
2026-04-22 21:02 53.80749 10.73055 58 ft 0 kts 250°
2026-04-22 21:04 53.80705 10.72840 60 ft 55 kts 252°
2026-04-22 21:05 53.80512 10.71821 58 ft 122 kts 252°
2026-04-22 21:05 53.80218 10.70200 219 ft 154 kts 253°
2026-04-22 21:05 53.79892 10.68514 948 ft 148 kts 250°
2026-04-22 21:05 53.79520 10.66951 1635 ft 143 kts 246°
2026-04-22 21:06 53.79267 10.65889 2041 ft 144 kts 251°
2026-04-22 21:06 53.78959 10.64285 2560 ft 144 kts 253°
2026-04-22 21:06 53.78661 10.62657 2985 ft 150 kts 253°
2026-04-22 21:06 53.78144 10.60261 3304 ft 177 kts 249°
2026-04-22 21:07 53.77663 10.58190 3523 ft 201 kts 249°
2026-04-22 21:07 53.77104 10.55824 3664 ft 234 kts 248°
2026-04-22 21:07 53.76662 10.54065 3688 ft 253 kts 242°
2026-04-22 21:07 53.75497 10.51817 3695 ft 260 kts 213°
2026-04-22 21:08 53.73789 10.50804 3692 ft 262 kts 185°
2026-04-22 21:08 53.71965 10.50629 3693 ft 264 kts 183°
2026-04-22 21:08 53.70110 10.50480 4284 ft 267 kts 183°
2026-04-22 21:08 53.68251 10.50337 5215 ft 269 kts 183°
2026-04-22 21:09 53.66376 10.50191 5940 ft 271 kts 183°
2026-04-22 21:09 53.64482 10.50036 6410 ft 274 kts 183°
2026-04-22 21:09 53.62569 10.49873 6887 ft 276 kts 183°
2026-04-22 21:09 53.60645 10.49708 7354 ft 278 kts 183°
2026-04-22 21:10 53.58742 10.49546 8106 ft 264 kts 183°
2026-04-22 21:10 53.56950 10.49392 8932 ft 254 kts 183°
2026-04-22 21:10 53.55191 10.49242 9483 ft 253 kts 183°
2026-04-22 21:10 53.53424 10.49091 9971 ft 255 kts 183°
2026-04-22 21:11 53.51659 10.49355 10429 ft 257 kts 166°
2026-04-22 21:11 53.49916 10.50128 11039 ft 260 kts 165°
2026-04-22 21:11 53.48165 10.50923 11758 ft 262 kts 165°
2026-04-22 21:11 53.46381 10.51739 12284 ft 274 kts 165°
2026-04-22 21:12 53.44466 10.52615 12491 ft 297 kts 165°
2026-04-22 21:12 53.42392 10.53561 12659 ft 320 kts 165°
2026-04-22 21:12 53.40162 10.54575 12799 ft 343 kts 165°
2026-04-22 21:12 53.37785 10.55655 12993 ft 362 kts 165°
2026-04-22 21:13 53.35326 10.56771 13517 ft 369 kts 165°
2026-04-22 21:13 53.32865 10.57890 14124 ft 373 kts 165°
2026-04-22 21:13 53.30352 10.59033 14741 ft 376 kts 165°
2026-04-22 21:13 53.27812 10.60180 15344 ft 380 kts 165°
2026-04-22 21:14 53.25249 10.61334 15925 ft 383 kts 165°
2026-04-22 21:14 53.22665 10.62496 16505 ft 387 kts 165°
2026-04-22 21:14 53.20054 10.63668 17078 ft 390 kts 165°
2026-04-22 21:14 53.17422 10.64852 17633 ft 393 kts 165°
2026-04-22 21:15 53.14771 10.66042 18181 ft 396 kts 165°
2026-04-22 21:15 53.12097 10.67241 18724 ft 400 kts 165°
2026-04-22 21:15 53.09405 10.68447 19257 ft 403 kts 165°
2026-04-22 21:15 53.06690 10.69662 19775 ft 406 kts 165°
2026-04-22 21:16 53.03947 10.70888 20277 ft 409 kts 165°
2026-04-22 21:16 53.01191 10.72115 20760 ft 412 kts 165°
2026-04-22 21:16 52.98425 10.73341 21221 ft 415 kts 165°
2026-04-22 21:16 52.95621 10.74580 21670 ft 417 kts 165°
2026-04-22 21:17 52.92801 10.75827 22102 ft 420 kts 165°
2026-04-22 21:17 52.89969 10.77082 22525 ft 423 kts 165°
2026-04-22 21:17 52.87114 10.78348 22931 ft 425 kts 165°
2026-04-22 21:17 52.84246 10.79617 23321 ft 428 kts 165°
2026-04-22 21:18 52.81358 10.80895 23698 ft 430 kts 165°
2026-04-22 21:18 52.78461 10.82175 24060 ft 433 kts 165°
2026-04-22 21:18 52.75540 10.83465 24420 ft 435 kts 165°
2026-04-22 21:18 52.72606 10.84758 24776 ft 437 kts 165°
2026-04-22 21:19 52.69701 10.86033 25097 ft 439 kts 165°
2026-04-22 21:19 52.66740 10.87331 25427 ft 442 kts 165°
2026-04-22 21:19 52.63762 10.88636 25745 ft 444 kts 165°
2026-04-22 21:19 52.60771 10.89944 26046 ft 446 kts 165°
2026-04-22 21:20 52.57767 10.91256 26354 ft 448 kts 165°
2026-04-22 21:20 52.54752 10.92567 26646 ft 450 kts 165°
2026-04-22 21:20 52.51716 10.93886 26930 ft 452 kts 165°
2026-04-22 21:20 52.48671 10.95211 27209 ft 453 kts 165°
2026-04-22 21:21 52.45615 10.96534 27470 ft 455 kts 165°
2026-04-22 21:21 52.42547 10.97859 27720 ft 457 kts 165°
2026-04-22 21:21 52.39469 10.99190 27975 ft 459 kts 165°
2026-04-22 21:21 52.36379 11.00530 28216 ft 460 kts 165°
2026-04-22 21:22 52.33275 11.01875 28440 ft 462 kts 165°
2026-04-22 21:22 52.30160 11.03217 28653 ft 464 kts 165°
2026-04-22 21:22 52.27037 11.04560 28882 ft 464 kts 165°
2026-04-22 21:22 52.23919 11.05898 29178 ft 464 kts 165°
2026-04-22 21:23 52.20797 11.07234 29469 ft 463 kts 165°
2026-04-22 21:23 52.17689 11.08562 29765 ft 462 kts 165°
2026-04-22 21:23 52.14572 11.09892 30058 ft 462 kts 165°
2026-04-22 21:23 52.11467 11.11220 30353 ft 461 kts 165°
2026-04-22 21:24 52.08366 11.12546 30641 ft 460 kts 165°
2026-04-22 21:24 52.05265 11.13873 30829 ft 462 kts 165°
2026-04-22 21:24 52.02165 11.15197 31143 ft 460 kts 165°
2026-04-22 21:24 51.99077 11.16513 31475 ft 458 kts 165°
2026-04-22 21:25 51.96001 11.17814 31816 ft 456 kts 166°
2026-04-22 21:25 51.92930 11.19104 32099 ft 456 kts 166°
2026-04-22 21:25 51.89863 11.20373 32445 ft 453 kts 166°
2026-04-22 21:25 51.86822 11.21637 32792 ft 451 kts 166°
2026-04-22 21:26 51.83770 11.22915 32945 ft 454 kts 166°
2026-04-22 21:26 51.81143 11.24023 33126 ft 455 kts 165°
2026-04-22 21:26 51.78123 11.25313 33362 ft 455 kts 165°
2026-04-22 21:26 51.75066 11.26623 33618 ft 454 kts 165°
2026-04-22 21:27 51.72008 11.27924 33862 ft 454 kts 165°
2026-04-22 21:27 51.68958 11.29213 34107 ft 454 kts 166°
2026-04-22 21:27 51.65897 11.30497 34343 ft 454 kts 166°
2026-04-22 21:27 51.62841 11.31772 34591 ft 453 kts 166°
2026-04-22 21:28 51.59788 11.33043 34830 ft 453 kts 166°
2026-04-22 21:28 51.56739 11.34307 35058 ft 453 kts 166°
2026-04-22 21:28 51.53689 11.35574 35278 ft 452 kts 166°
2026-04-22 21:28 51.50645 11.36841 35488 ft 452 kts 166°
2026-04-22 21:29 51.47601 11.38106 35718 ft 451 kts 166°
2026-04-22 21:29 51.44567 11.39363 35920 ft 450 kts 166°
2026-04-22 21:29 51.41532 11.40618 36116 ft 450 kts 166°
2026-04-22 21:29 51.38504 11.41869 36300 ft 449 kts 166°
2026-04-22 21:30 51.35516 11.43099 36459 ft 450 kts 166°
2026-04-22 21:30 51.32487 11.44344 36618 ft 450 kts 166°
2026-04-22 21:30 51.29456 11.45591 36786 ft 449 kts 166°
2026-04-22 21:30 51.26434 11.46833 36955 ft 449 kts 166°
2026-04-22 21:31 51.20355 11.49324 37009 ft 453 kts 166°
2026-04-22 21:31 51.14244 11.51825 37009 ft 454 kts 166°
2026-04-22 21:32 51.08132 11.54322 37009 ft 453 kts 166°
2026-04-22 21:32 51.02021 11.56807 37009 ft 453 kts 166°
2026-04-22 21:33 50.95905 11.59280 37011 ft 454 kts 166°
2026-04-22 21:33 50.89781 11.61761 37017 ft 454 kts 166°
2026-04-22 21:34 50.83699 11.64219 37020 ft 454 kts 166°
2026-04-22 21:34 50.77568 11.66683 37021 ft 455 kts 166°
2026-04-22 21:35 50.71433 11.69140 37023 ft 455 kts 166°
2026-04-22 21:35 50.65296 11.71596 37022 ft 455 kts 166°
2026-04-22 21:36 50.59150 11.74044 37022 ft 456 kts 166°
2026-04-22 21:36 50.52996 11.76492 37023 ft 456 kts 166°
2026-04-22 21:37 50.46849 11.78940 37023 ft 456 kts 166°
2026-04-22 21:37 50.40693 11.81383 37024 ft 456 kts 166°
2026-04-22 21:38 50.34534 11.83805 37025 ft 456 kts 166°
2026-04-22 21:38 50.28376 11.86228 37024 ft 457 kts 166°
2026-04-22 21:39 50.22217 11.88650 37025 ft 457 kts 166°
2026-04-22 21:39 50.16047 11.91065 37025 ft 457 kts 166°
2026-04-22 21:40 50.09916 11.93462 37024 ft 457 kts 166°
2026-04-22 21:40 50.03748 11.95879 37024 ft 457 kts 166°
2026-04-22 21:41 49.97575 11.98283 37024 ft 457 kts 166°
2026-04-22 21:41 49.91400 12.00677 37026 ft 457 kts 166°
2026-04-22 21:42 49.85220 12.03059 37028 ft 457 kts 166°
2026-04-22 21:42 49.79042 12.05428 37027 ft 457 kts 166°
2026-04-22 21:43 49.72940 12.07955 37029 ft 457 kts 159°
2026-04-22 21:43 49.67429 12.12746 37028 ft 456 kts 141°
2026-04-22 21:44 49.62466 12.18890 37027 ft 456 kts 141°
2026-04-22 21:44 49.57493 12.24981 37025 ft 457 kts 142°
2026-04-22 21:45 49.52516 12.31063 37024 ft 457 kts 142°
2026-04-22 21:45 49.47541 12.37153 37023 ft 457 kts 141°
2026-04-22 21:46 49.42564 12.43236 37023 ft 457 kts 142°
2026-04-22 21:46 49.37531 12.49209 37022 ft 457 kts 148°
2026-04-22 21:47 49.31735 12.53045 37023 ft 455 kts 167°
2026-04-22 21:47 49.25447 12.53749 37021 ft 454 kts 182°
2026-04-22 21:48 49.19165 12.53417 37021 ft 455 kts 182°
2026-04-22 21:48 49.12841 12.53086 37020 ft 455 kts 182°
2026-04-22 21:49 49.06506 12.52768 37018 ft 456 kts 182°
2026-04-22 21:49 49.00168 12.52423 37018 ft 456 kts 183°
2026-04-22 21:50 48.93829 12.51931 37026 ft 456 kts 183°
2026-04-22 21:50 48.87501 12.51402 37028 ft 455 kts 183°
2026-04-22 21:51 48.81174 12.50896 37028 ft 455 kts 183°
2026-04-22 21:52 48.71674 12.50181 37026 ft 455 kts 183°
2026-04-22 21:52 48.65343 12.49710 37026 ft 455 kts 183°
2026-04-22 21:53 48.59014 12.49229 37026 ft 455 kts 183°
2026-04-22 21:53 48.52685 12.48746 37025 ft 455 kts 183°
2026-04-22 21:54 48.46443 12.47698 37021 ft 455 kts 195°
2026-04-22 21:54 48.40718 12.43833 37019 ft 453 kts 215°
2026-04-22 21:55 48.35843 12.37812 37017 ft 453 kts 220°
2026-04-22 21:55 48.31031 12.31676 37016 ft 454 kts 220°
2026-04-22 21:56 48.26199 12.25548 37019 ft 454 kts 220°
2026-04-22 21:56 48.21390 12.19469 37019 ft 454 kts 220°
2026-04-22 21:57 48.16538 12.13351 37019 ft 455 kts 220°
2026-04-22 21:57 48.11699 12.07252 37020 ft 455 kts 220°
2026-04-22 21:58 48.06857 12.01154 37022 ft 455 kts 220°
2026-04-22 21:58 48.02010 11.95064 37023 ft 455 kts 220°
2026-04-22 21:59 47.97159 11.89001 37024 ft 455 kts 220°
2026-04-22 21:59 47.93043 11.84120 37023 ft 455 kts 212°
2026-04-22 22:00 47.86245 11.80070 37019 ft 455 kts 189°
2026-04-22 22:00 47.80956 11.79490 37014 ft 455 kts 182°
2026-04-22 22:01 47.74661 11.79142 37010 ft 456 kts 182°
2026-04-22 22:01 47.68311 11.78773 37004 ft 457 kts 182°
2026-04-22 22:02 47.61947 11.78407 36998 ft 458 kts 182°
2026-04-22 22:02 47.55563 11.78050 36998 ft 460 kts 182°
2026-04-22 22:03 47.49168 11.77693 37005 ft 460 kts 182°
2026-04-22 22:03 47.42754 11.77322 37000 ft 461 kts 182°
2026-04-22 22:04 47.36342 11.76965 37026 ft 461 kts 182°
2026-04-22 22:04 47.29928 11.76618 37009 ft 462 kts 182°
2026-04-22 22:05 47.23499 11.76272 37002 ft 463 kts 182°
2026-04-22 22:05 47.17052 11.75916 36995 ft 464 kts 182°
2026-04-22 22:06 47.10670 11.74689 37001 ft 464 kts 197°
2026-04-22 22:06 47.04742 11.71045 37000 ft 465 kts 205°
2026-04-22 22:07 46.98894 11.67128 37008 ft 465 kts 205°
2026-04-22 22:07 46.93002 11.63187 37007 ft 466 kts 205°
2026-04-22 22:08 46.87106 11.59223 37011 ft 467 kts 205°
2026-04-22 22:08 46.81204 11.55278 37033 ft 466 kts 205°
2026-04-22 22:09 46.75300 11.51365 37026 ft 466 kts 205°
2026-04-22 22:09 46.72343 11.49408 36864 ft 467 kts 205°
2026-04-22 22:09 46.69321 11.47711 36621 ft 466 kts 196°
2026-04-22 22:09 46.66159 11.46723 36364 ft 465 kts 187°
2026-04-22 22:10 46.62948 11.46195 36115 ft 464 kts 186°
2026-04-22 22:10 46.59735 11.45673 35867 ft 465 kts 186°
2026-04-22 22:10 46.56521 11.45148 35618 ft 464 kts 186°
2026-04-22 22:10 46.53319 11.44623 35369 ft 462 kts 187°
2026-04-22 22:11 46.50132 11.44094 35120 ft 460 kts 187°
2026-04-22 22:11 46.46956 11.43564 34869 ft 459 kts 187°
2026-04-22 22:11 46.43776 11.43038 34340 ft 462 kts 187°
2026-04-22 22:11 46.40567 11.42513 33390 ft 465 kts 186°
2026-04-22 22:12 46.37343 11.41991 32429 ft 468 kts 186°
2026-04-22 22:12 46.34098 11.41466 31424 ft 471 kts 186°
2026-04-22 22:12 46.30834 11.40936 30480 ft 471 kts 186°
2026-04-22 22:12 46.27559 11.40441 29347 ft 475 kts 184°
2026-04-22 22:13 46.24254 11.40321 28222 ft 477 kts 181°
2026-04-22 22:13 46.20934 11.40265 27191 ft 477 kts 181°
2026-04-22 22:13 46.17685 11.40212 26533 ft 469 kts 181°
2026-04-22 22:13 46.14437 11.40157 25783 ft 464 kts 181°
2026-04-22 22:14 46.11227 11.40100 25046 ft 459 kts 181°
2026-04-22 22:14 46.08052 11.40040 24309 ft 454 kts 181°
2026-04-22 22:14 46.04913 11.39987 23610 ft 449 kts 179°
2026-04-22 22:14 46.01819 11.40340 22928 ft 443 kts 173°
2026-04-22 22:15 45.98776 11.40896 22264 ft 439 kts 173°
2026-04-22 22:15 45.95761 11.41440 21626 ft 435 kts 173°
2026-04-22 22:15 45.92776 11.41976 21004 ft 430 kts 173°
2026-04-22 22:15 45.89821 11.42506 20396 ft 426 kts 173°
2026-04-22 22:16 45.86900 11.43032 19812 ft 421 kts 173°
2026-04-22 22:16 45.84007 11.43554 19251 ft 416 kts 173°
2026-04-22 22:16 45.81147 11.44068 18693 ft 412 kts 173°
2026-04-22 22:16 45.78319 11.44576 18184 ft 407 kts 173°
2026-04-22 22:17 45.75522 11.45077 17670 ft 403 kts 173°
2026-04-22 22:17 45.72758 11.45572 17173 ft 398 kts 173°
2026-04-22 22:17 45.70026 11.46060 16683 ft 393 kts 173°
2026-04-22 22:17 45.67319 11.46543 16184 ft 389 kts 173°
2026-04-22 22:18 45.64649 11.47022 15710 ft 385 kts 173°
2026-04-22 22:18 45.62004 11.47496 15200 ft 381 kts 173°
2026-04-22 22:18 45.59384 11.47963 14696 ft 377 kts 173°
2026-04-22 22:18 45.56791 11.48422 14164 ft 374 kts 173°
2026-04-22 22:19 45.54213 11.48878 13658 ft 371 kts 173°
2026-04-22 22:19 45.51730 11.49319 13500 ft 358 kts 173°
2026-04-22 22:19 45.49308 11.49749 13372 ft 344 kts 173°
2026-04-22 22:19 45.46967 11.50160 13199 ft 334 kts 173°
2026-04-22 22:20 45.44709 11.50757 12913 ft 329 kts 163°
2026-04-22 22:20 45.42619 11.52030 12663 ft 327 kts 150°
2026-04-22 22:20 45.40794 11.53940 12341 ft 326 kts 137°
2026-04-22 22:20 45.39252 11.56302 11833 ft 327 kts 131°
2026-04-22 22:21 45.37742 11.58710 11428 ft 324 kts 132°
2026-04-22 22:21 45.36234 11.61100 10932 ft 324 kts 132°
2026-04-22 22:21 45.34876 11.63616 10557 ft 320 kts 120°
2026-04-22 22:21 45.33971 11.66446 10412 ft 308 kts 108°
2026-04-22 22:22 45.33476 11.69354 10224 ft 300 kts 102°
2026-04-22 22:22 45.33045 11.72222 10017 ft 293 kts 102°
2026-04-22 22:22 45.32616 11.75040 9996 ft 291 kts 102°
2026-04-22 22:22 45.32189 11.77813 9389 ft 290 kts 102°
2026-04-22 22:23 45.31758 11.80607 8670 ft 289 kts 102°
2026-04-22 22:23 45.31329 11.83382 7991 ft 286 kts 102°
2026-04-22 22:23 45.30905 11.86119 7404 ft 281 kts 102°
2026-04-22 22:23 45.30490 11.88819 6953 ft 279 kts 102°
2026-04-22 22:24 45.30085 11.91461 6512 ft 277 kts 102°
2026-04-22 22:24 45.29675 11.94123 6059 ft 276 kts 102°
2026-04-22 22:24 45.29260 11.96789 5557 ft 272 kts 102°
2026-04-22 22:24 45.28867 11.99315 5482 ft 255 kts 102°
2026-04-22 22:25 45.28496 12.01707 5381 ft 242 kts 102°
2026-04-22 22:25 45.28222 12.04001 5280 ft 232 kts 90°
2026-04-22 22:25 45.28483 12.06236 5181 ft 230 kts 68°
2026-04-22 22:25 45.29316 12.08166 4867 ft 230 kts 45°
2026-04-22 22:26 45.30477 12.09708 4575 ft 228 kts 42°
2026-04-22 22:26 45.31638 12.11234 4290 ft 227 kts 42°
2026-04-22 22:26 45.32788 12.12757 4002 ft 226 kts 43°
2026-04-22 22:26 45.33934 12.14278 3723 ft 225 kts 43°
2026-04-22 22:27 45.35073 12.15794 3444 ft 224 kts 43°
2026-04-22 22:27 45.36203 12.17301 3167 ft 222 kts 43°
2026-04-22 22:27 45.37321 12.18796 2879 ft 217 kts 43°
2026-04-22 22:27 45.38408 12.20223 2608 ft 208 kts 41°
2026-04-22 22:28 45.39475 12.21547 2374 ft 201 kts 40°
2026-04-22 22:28 45.40501 12.22802 2071 ft 192 kts 40°
2026-04-22 22:28 45.41482 12.23998 1819 ft 180 kts 40°
2026-04-22 22:28 45.42399 12.25117 1580 ft 167 kts 40°
2026-04-22 22:29 45.43244 12.26153 1368 ft 157 kts 40°
2026-04-22 22:29 45.44061 12.27154 1201 ft 155 kts 40°
2026-04-22 22:29 45.44852 12.28122 976 ft 147 kts 40°
2026-04-22 22:29 45.45618 12.29052 729 ft 143 kts 38°
2026-04-22 22:30 45.46406 12.29862 519 ft 137 kts 33°
2026-04-22 22:30 45.47187 12.30607 296 ft 134 kts 36°
2026-04-22 22:30 45.47888 12.31480 156 ft 136 kts 43°
2026-04-22 22:30 45.48582 12.32407 98 ft 136 kts 41°
2026-04-22 22:31 45.49280 12.33296 79 ft 134 kts 40°
2026-04-22 22:31 45.49986 12.34163 24 ft 133 kts 40°
2026-04-22 22:31 45.50642 12.34982 14 ft 109 kts 49°
2026-04-22 22:31 45.51057 12.35536 15 ft 49 kts 42°
2026-04-22 22:32 45.51271 12.35773 12 ft 26 kts 13°
2026-04-22 22:32 45.51291 12.35779 13 ft 0 kts 12°
2026-04-22 22:32 45.51338 12.35793 15 ft 0 kts 12°
2026-04-22 22:33 45.51344 12.35795 15 ft 6 kts 12°
2026-04-22 22:33 45.51398 12.35889 17 ft 15 kts 132°
2026-04-22 22:33 45.51296 12.35872 13 ft 18 kts 225°
2026-04-22 22:34 45.51200 12.35725 13 ft 21 kts 223°
2026-04-22 22:34 45.51084 12.35574 14 ft 24 kts 223°
2026-04-22 22:34 45.50986 12.35384 20 ft 24 kts 258°
2026-04-22 22:34 45.50923 12.35157 19 ft 24 kts 223°
2026-04-22 22:35 45.50786 12.34986 15 ft 29 kts 223°
2026-04-22 22:35 45.50633 12.34788 14 ft 30 kts 222°
2026-04-22 22:35 45.50601 12.34530 15 ft 28 kts 267°
2026-04-22 22:35 45.50571 12.34392 15 ft 0 kts 225°
2026-04-22 22:38 45.50544 12.34358 15 ft 10 kts 213°
2026-04-22 22:38 45.50491 12.34328 18 ft 7 kts 187°
2026-04-22 22:38 45.50456 12.34333 18 ft 3 kts 200°
2026-04-22 22:39 45.50444 12.34323 18 ft 1 kts 216°
2026-04-22 22:40 45.50443 12.34322 18 ft 2 kts 217°
2026-04-22 22:40 45.50426 12.34246 18 ft 12 kts 264°
2026-04-22 22:41 45.50424 12.34211 18 ft 1 kts 266°
2026-04-22 22:41 45.50423 12.34202 18 ft 0 kts 266°
2026-04-22 22:41 45.50423 12.34193 18 ft 0 kts 266°
2026-04-22 22:41 45.50423 12.34192 18 ft 0 kts 266°